Tracking 29606 objects as of 19-Sep-2024
HD Live streaming from Space Station
objects crossing your sky now

STARLINK-32114

Track STARLINK-32114 now!
10-day predictions
STARLINK-32114 is classified as:


NORAD ID: 60287
Int'l Code: 2024-132K
Perigee: 482.0 km
Apogee: 482.9 km
Inclination: 53.2 °
Period: 94.1 minutes
Semi major axis: 6853 km
RCS: Unknown
Launch date: July 28, 2024
Source: United States (US)
Launch site: AIR FORCE EASTERN TEST RANGE (AFETR)
Your satellite tracking list
Your tracking list is empty




NASA's NSSDC Master Catalog

Two Line Element Set (TLE):
1 60287U 24132K   24262.59105564 -.00006694  00000-0 -21433-3 0  9999
2 60287  53.1591  27.5239 0000586  42.2945 317.8101 15.30168268  9316
Source of the keplerian elements: AFSPC